User: anonymous   Login
Location: Dompnac
(44.5644°N, 4.1026°E)
Time: 11:21:41
(UTC+00:00)
Language:

Okean 2 Rocket - Orbit

View from above orbital plane
View from above orbital plane
View from above satellite
View from above satellite

Ground track
Ground track

The orbit data is extracted from the following two-line orbital elements,

1 20511U 90018B   21131.89412397  .00000063  00000-0  51448-5 0  9994
2 20511  82.5245  67.2464 0018800 118.2500 303.5377 14.80076800661690
Epoch (UTC): 11 May 2021 21:27:32
Eccentricity: 0.0018800
inclination: 82.5245°
perigee height: 616 km
apogee height: 642 km
right ascension of ascending node: 67.2464°
argument of perigee: 118.2500°
revolutions per day: 14.80076800
mean anomaly at epoch: 303.5377°
orbit number at epoch: 66169

The dashed part of the orbit path shows where the satellite is in the earth's shadow,  

DLR